FDX1477 KLAX-EDDF

Flight info

Callsign FDX1477
Flight time N/A
Altitude 33000
Route OSHNN1 BEALE Q842 WINEN DCT EHK DCT OCS/N0478F350 DCT CZI DCT RECAP DCT DIK DCT KOBID DCT 56N090W 61N080W/N0469F370 6330N07000W DCT MUSVA/M082F370 DCT CLAVY DCT 64N050W 6330N04000W 6230N03000W/M083F390 6030N02000W DCT ERAKA/N0480F390 DCT ETSOM DCT ERSON DCT ROBEM DCT ERLOT DCT BAZNA DCT ROKAN DCT TOPPA DCT SOGPO DCT DIXAT DIXAT1D
Aircraft MD11/H-SDE1E2E3FGHIJ2J3J4J5M1RWXY/LB1D1

Departure

Time 2026-04-26 04:52
Airport Los Angeles International Airport (KLAX)

Arrival

Time N/A
Airport Frankfurt Main Airport (EDDF)
Time Latitude Longitude Altitude Speed Heading
2026-04-26 04:32 33.93409 -118.38772 100 ft 0 kts 174°
2026-04-26 04:40 33.93410 -118.38772 100 ft 0 kts 174°
2026-04-26 04:41 33.93415 -118.38772 100 ft 1 kts 174°
2026-04-26 04:41 33.93423 -118.38773 103 ft 1 kts 174°
2026-04-26 04:41 33.93432 -118.38774 100 ft 1 kts 174°
2026-04-26 04:42 33.93440 -118.38775 99 ft 1 kts 173°
2026-04-26 04:42 33.93449 -118.38777 99 ft 1 kts 173°
2026-04-26 04:42 33.93457 -118.38778 99 ft 1 kts 164°
2026-04-26 04:42 33.93465 -118.38782 102 ft 1 kts 130°
2026-04-26 04:43 33.93470 -118.38791 101 ft 1 kts 105°
2026-04-26 04:43 33.93472 -118.38801 100 ft 1 kts 90°
2026-04-26 04:43 33.93472 -118.38811 99 ft 1 kts 84°
2026-04-26 04:43 33.93471 -118.38816 98 ft 0 kts 84°
2026-04-26 04:46 33.93472 -118.38813 99 ft 1 kts 82°
2026-04-26 04:46 33.93474 -118.38798 100 ft 1 kts 77°
2026-04-26 04:46 33.93480 -118.38788 99 ft 1 kts 53°
2026-04-26 04:46 33.93495 -118.38782 103 ft 3 kts
2026-04-26 04:47 33.93541 -118.38779 101 ft 7 kts 12°
2026-04-26 04:47 33.93565 -118.38739 102 ft 5 kts 72°
2026-04-26 04:47 33.93573 -118.38662 102 ft 6 kts 84°
2026-04-26 04:47 33.93573 -118.38660 102 ft 0 kts 84°
2026-04-26 04:48 33.93577 -118.38620 104 ft 10 kts 84°
2026-04-26 04:48 33.93588 -118.38499 101 ft 19 kts 82°
2026-04-26 04:49 33.93604 -118.38365 101 ft 11 kts 82°
2026-04-26 04:49 33.93613 -118.38322 103 ft 4 kts 71°
2026-04-26 04:49 33.93617 -118.38314 102 ft 1 kts 60°
2026-04-26 04:49 33.93626 -118.38297 102 ft 3 kts 54°
2026-04-26 04:50 33.93631 -118.38293 103 ft 0 kts 43°
2026-04-26 04:50 33.93634 -118.38291 103 ft 2 kts 37°
2026-04-26 04:51 33.93664 -118.38283 104 ft 6 kts
2026-04-26 04:51 33.93697 -118.38289 104 ft 6 kts 344°
2026-04-26 04:51 33.93727 -118.38328 104 ft 7 kts 294°
2026-04-26 04:51 33.93724 -118.38401 106 ft 16 kts 263°
2026-04-26 04:52 33.93657 -118.39058 100 ft 143 kts 263°
2026-04-26 04:52 33.93501 -118.40566 365 ft 200 kts 263°
2026-04-26 04:52 33.93293 -118.42310 1096 ft 218 kts 261°
2026-04-26 04:52 33.93086 -118.43948 2210 ft 208 kts 262°
2026-04-26 04:53 33.92922 -118.45660 3523 ft 205 kts 265°
2026-04-26 04:53 33.92792 -118.47339 4665 ft 210 kts 260°
2026-04-26 04:53 33.92137 -118.49070 4875 ft 245 kts 233°
2026-04-26 04:53 33.90907 -118.50558 5665 ft 252 kts 225°
2026-04-26 04:54 33.89635 -118.52010 6903 ft 252 kts 226°
2026-04-26 04:54 33.88400 -118.53521 8061 ft 255 kts 228°
2026-04-26 04:54 33.87183 -118.55092 9224 ft 258 kts 227°
2026-04-26 04:54 33.85644 -118.56229 10340 ft 266 kts 199°
2026-04-26 04:55 33.83762 -118.56366 11402 ft 280 kts 176°
2026-04-26 04:55 33.81824 -118.55853 12416 ft 290 kts 170°
2026-04-26 04:55 33.79914 -118.55205 13476 ft 296 kts 170°
2026-04-26 04:55 33.77922 -118.54537 14447 ft 301 kts 171°
2026-04-26 04:56 33.75882 -118.53889 15456 ft 305 kts 172°
2026-04-26 04:56 33.73812 -118.53265 16496 ft 308 kts 173°
2026-04-26 04:56 33.71710 -118.52654 17514 ft 313 kts 173°
2026-04-26 04:56 33.69692 -118.51628 18487 ft 332 kts 151°
2026-04-26 04:57 33.68063 -118.49617 19412 ft 353 kts 129°
2026-04-26 04:57 33.67023 -118.46887 20329 ft 369 kts 111°
2026-04-26 04:57 33.66391 -118.43877 20964 ft 377 kts 107°
2026-04-26 04:57 33.65812 -118.40774 21797 ft 381 kts 107°
2026-04-26 04:58 33.65163 -118.37661 22662 ft 387 kts 109°
2026-04-26 04:58 33.64536 -118.34785 23263 ft 394 kts 105°
2026-04-26 04:58 33.64237 -118.31484 23479 ft 403 kts 95°
2026-04-26 04:58 33.64210 -118.28943 23671 ft 406 kts 92°
2026-04-26 04:59 33.64269 -118.25544 23907 ft 408 kts 91°
2026-04-26 04:59 33.64347 -118.22133 24131 ft 410 kts 91°
2026-04-26 04:59 33.64558 -118.18719 24303 ft 414 kts 79°
2026-04-26 04:59 33.65529 -118.15482 24581 ft 413 kts 59°
2026-04-26 05:00 33.67243 -118.12742 24825 ft 409 kts 40°
2026-04-26 05:00 33.69483 -118.10693 25059 ft 404 kts 26°
2026-04-26 05:00 33.71875 -118.08925 25185 ft 406 kts 26°
2026-04-26 05:00 33.74214 -118.07011 25381 ft 410 kts 31°
2026-04-26 05:01 33.76460 -118.04851 25463 ft 416 kts 36°
2026-04-26 05:01 33.78609 -118.02491 25611 ft 420 kts 40°
2026-04-26 05:01 33.80689 -118.00003 25783 ft 421 kts 42°
2026-04-26 05:01 33.82716 -117.97460 25924 ft 420 kts 43°
2026-04-26 05:02 33.84709 -117.94905 26063 ft 418 kts 43°
2026-04-26 05:02 33.86692 -117.92345 26173 ft 417 kts 43°
2026-04-26 05:02 33.88663 -117.89797 26287 ft 416 kts 43°
2026-04-26 05:02 33.90636 -117.87251 26459 ft 414 kts 43°
2026-04-26 05:03 33.92602 -117.84715 26571 ft 412 kts 43°
2026-04-26 05:03 33.94557 -117.82195 26689 ft 411 kts 43°
2026-04-26 05:03 33.96507 -117.79682 26847 ft 410 kts 43°
2026-04-26 05:03 33.98434 -117.77195 27241 ft 400 kts 43°
2026-04-26 05:04 34.00305 -117.74776 27745 ft 390 kts 43°
2026-04-26 05:04 34.02128 -117.72418 28279 ft 380 kts 43°
2026-04-26 05:04 34.03886 -117.70144 28774 ft 371 kts 43°
2026-04-26 05:04 34.05629 -117.67891 29318 ft 363 kts 43°
2026-04-26 05:05 34.07330 -117.65691 29869 ft 355 kts 43°
2026-04-26 05:05 34.08992 -117.63539 30358 ft 346 kts 43°
2026-04-26 05:05 34.12338 -117.59217 30584 ft 357 kts 43°
2026-04-26 05:06 34.14045 -117.57011 30712 ft 361 kts 43°
2026-04-26 05:06 34.15763 -117.54785 30851 ft 365 kts 43°
2026-04-26 05:06 34.17494 -117.52539 30961 ft 368 kts 43°
2026-04-26 05:06 34.18712 -117.50956 31046 ft 370 kts 43°
2026-04-26 05:07 34.20300 -117.48892 31151 ft 372 kts 43°
2026-04-26 05:07 34.22064 -117.46587 31242 ft 374 kts 44°
2026-04-26 05:07 34.23828 -117.44274 31394 ft 375 kts 45°
2026-04-26 05:07 34.25599 -117.41952 31541 ft 377 kts 45°
2026-04-26 05:08 34.27360 -117.39646 31654 ft 378 kts 45°
2026-04-26 05:08 34.29170 -117.37280 31785 ft 378 kts 45°
2026-04-26 05:08 34.30958 -117.34944 31895 ft 379 kts 45°
2026-04-26 05:08 34.32752 -117.32599 32024 ft 379 kts 45°
2026-04-26 05:09 34.34542 -117.30259 32139 ft 380 kts 45°
2026-04-26 05:09 34.36337 -117.27912 32260 ft 380 kts 45°
2026-04-26 05:09 34.38130 -117.25566 32381 ft 379 kts 45°
2026-04-26 05:09 34.39919 -117.23222 32498 ft 379 kts 45°
2026-04-26 05:10 34.41712 -117.20872 32615 ft 379 kts 45°
2026-04-26 05:10 34.43473 -117.18563 32776 ft 376 kts 45°
2026-04-26 05:10 34.47039 -117.13884 32879 ft 380 kts 45°
2026-04-26 05:11 34.50658 -117.09129 32872 ft 387 kts 45°
2026-04-26 05:11 34.54322 -117.04308 32867 ft 391 kts 45°
2026-04-26 05:12 34.58025 -116.99427 32869 ft 395 kts 46°
2026-04-26 05:12 34.61755 -116.94504 32848 ft 397 kts 46°
2026-04-26 05:13 34.65500 -116.89552 32838 ft 399 kts 46°
2026-04-26 05:13 34.69252 -116.84585 32849 ft 399 kts 46°
2026-04-26 05:14 34.73022 -116.79588 32859 ft 404 kts 46°
2026-04-26 05:14 34.76776 -116.74605 32862 ft 411 kts 46°
2026-04-26 05:15 34.80657 -116.69415 32861 ft 416 kts 47°
2026-04-26 05:15 34.84550 -116.64207 32857 ft 421 kts 47°
2026-04-26 05:16 34.88501 -116.58930 32855 ft 423 kts 46°
2026-04-26 05:16 34.92492 -116.53600 32837 ft 427 kts 47°
2026-04-26 05:17 34.96502 -116.48235 32815 ft 429 kts 47°
2026-04-26 05:17 35.00563 -116.42881 32803 ft 432 kts 47°
2026-04-26 05:18 35.02613 -116.40136 32789 ft 445 kts 47°
2026-04-26 05:18 35.04726 -116.37275 32802 ft 462 kts 48°
2026-04-26 05:18 35.06903 -116.34321 32799 ft 474 kts 48°
2026-04-26 05:18 35.09125 -116.31310 32796 ft 479 kts 48°
2026-04-26 05:19 35.13580 -116.25293 32771 ft 475 kts 48°
2026-04-26 05:19 35.18019 -116.19304 32797 ft 477 kts 48°
2026-04-26 05:20 35.22479 -116.13279 32799 ft 477 kts 48°
2026-04-26 05:20 35.26915 -116.07275 32805 ft 473 kts 48°
2026-04-26 05:21 35.31325 -116.01294 32807 ft 473 kts 48°
2026-04-26 05:21 35.35714 -115.95308 32812 ft 473 kts 49°
2026-04-26 05:22 35.40083 -115.89330 32817 ft 469 kts 49°
2026-04-26 05:22 35.44415 -115.83411 32816 ft 469 kts 49°
2026-04-26 05:23 35.48804 -115.77417 32824 ft 469 kts 49°
2026-04-26 05:23 35.53140 -115.71486 32818 ft 469 kts 49°
2026-04-26 05:24 35.57491 -115.65524 32813 ft 469 kts 49°
2026-04-26 05:24 35.61852 -115.59536 32814 ft 472 kts 49°
2026-04-26 05:25 35.66234 -115.53509 32820 ft 473 kts 49°
2026-04-26 05:25 35.70612 -115.47477 32802 ft 473 kts 49°
2026-04-26 05:26 35.74987 -115.41437 32809 ft 473 kts 49°
2026-04-26 05:26 35.79364 -115.35385 32797 ft 473 kts 49°
2026-04-26 05:27 35.83734 -115.29330 32791 ft 474 kts 49°
2026-04-26 05:27 35.88124 -115.23238 32793 ft 475 kts 49°
2026-04-26 05:28 35.92492 -115.17130 32799 ft 472 kts 49°
2026-04-26 05:28 35.96829 -115.11061 32795 ft 472 kts 49°
2026-04-26 05:29 36.01180 -115.04983 32798 ft 472 kts 49°
2026-04-26 05:29 36.05522 -114.98914 32750 ft 472 kts 49°
2026-04-26 05:30 36.09878 -114.92814 32726 ft 474 kts 49°
2026-04-26 05:30 36.14232 -114.86705 32709 ft 474 kts 49°
2026-04-26 05:31 36.16586 -114.83855 32697 ft 473 kts 37°
2026-04-26 05:31 36.19270 -114.81616 32702 ft 471 kts 28°
2026-04-26 05:31 36.25065 -114.77886 32697 ft 468 kts 24°
2026-04-26 05:32 36.30879 -114.74265 32679 ft 467 kts 25°
2026-04-26 05:32 36.36631 -114.70503 32664 ft 467 kts 26°
2026-04-26 05:33 36.42363 -114.66665 32647 ft 468 kts 26°
2026-04-26 05:33 36.48086 -114.62815 32666 ft 467 kts 27°
2026-04-26 05:34 36.53784 -114.58982 32639 ft 465 kts 27°
2026-04-26 05:34 36.59477 -114.55148 32637 ft 465 kts 27°
2026-04-26 05:35 36.64202 -114.51962 32641 ft 465 kts 27°
2026-04-26 05:35 36.69888 -114.48122 32637 ft 465 kts 27°
2026-04-26 05:36 36.75497 -114.44130 32636 ft 466 kts 35°
2026-04-26 05:36 36.80450 -114.38960 32641 ft 463 kts 42°
2026-04-26 05:37 36.85200 -114.33713 32616 ft 462 kts 41°
2026-04-26 05:37 36.89857 -114.28796 32645 ft 468 kts 40°
2026-04-26 05:38 36.94866 -114.23641 32647 ft 466 kts 39°
2026-04-26 05:38 36.99868 -114.18510 32667 ft 462 kts 39°
2026-04-26 05:39 37.04734 -114.13505 32639 ft 447 kts 39°
2026-04-26 05:39 37.07161 -114.11000 32665 ft 459 kts 40°
2026-04-26 05:39 37.09614 -114.08465 32668 ft 466 kts 40°
2026-04-26 05:40 37.14609 -114.03301 32672 ft 465 kts 39°
2026-04-26 05:40 37.19595 -113.98139 32679 ft 465 kts 39°
2026-04-26 05:41 37.24574 -113.92973 32683 ft 465 kts 39°
2026-04-26 05:41 37.29554 -113.87797 32698 ft 465 kts 39°
2026-04-26 05:42 37.34530 -113.82617 32705 ft 462 kts 40°
2026-04-26 05:42 37.37834 -113.79165 32715 ft 462 kts 40°